Starlink 31547

operational
NORAD ID: 59364 Int'l Des: 2024-060 Owner: SPXS Country: US Constellation: starlink
LEOCIRCULAR

Über Starlink 31547

Beschreibung wird geladen...

Live-Position

3D-Globus wird geladen...

Nächste Überflüge

Höhenverlauf

Altitude vs Time

uPlot chart will show altitude changes over time

Zweizeiliger Elementsatz

1 59364U 24060S 25306.11725010 -.00000167 00000-0 34542-5 0 9990
2 59364 43.0040 248.9536 0001334 268.9512 91.1187 15.27584522 90682
Epoch: 2. Nov. 2025 • Age: 16 hours

Aktueller Status

Höhe 484.9 km
Geschwindigkeit 7.63 km/s
Subsatellitenpunkt 33.41°N, 33.49°W
Startdatum 31. März 2024
Alter 1.5 years
Typ internet

Technische Details

Klassifizierung Payload
Masse 730.00 kg
Trockenmasse 700.00 kg
Gesamtmasse 730.00 kg
Länge 0.30 m
Durchmesser 4.10 m
Spannweite 29.00 m
Form Box + pan
Hersteller SPXS
Bus-Typ Starlink V2M
Phasenstatus In Orbit
Besitzer/Staat SPXS/US

Große Konstellationen

Loading constellations...